Hourly Data Report for June 17, 2020

All times are specified in Local Standard Time (LST). Add 1 hour to adjust for Daylight Saving Time where and when it is observed.

OTTAWA INTL A
ONTARIO
Current Station Operator: NAVCAN

45°19'00.000" N
75°40'00.000" W
114.90 m
6106001
71628
YOW

Download Data

Hourly Data (June 2020)
Hourly Data Report for June 17, 2020
TIME Temp Definition
°C
Dew Point Definition
°C
Rel Hum Definition
%
Wind Dir Definition
10's deg

Wind Spd Definition
km/h
Visibility Definition
km
Stn Press Definition
kPa
Hmdx Definition


Wind Chill Definition


Weather Definition


00:00 16.4 9.0 61 29 5 24.1 101.09     LegendNANA
01:00 17.4 8.7 56 26 7 24.1 101.09     Clear
02:00 13.9 9.3 74 25 7 24.1 101.08     LegendNANA
03:00 13.9 9.5 75 21 8 24.1 101.07     LegendNANA
04:00 11.2 9.1 87 21 4 24.1 101.09     Mainly Clear
05:00 12.1 9.7 85 20 9 24.1 101.13     LegendNANA
06:00 14.7 10.6 76 19 5 24.1 101.14     LegendNANA
07:00 18.3 11.2 63 23 3 24.1 101.16     Mainly Clear
08:00 21.3 11.5 53 31 3 24.1 101.15     LegendNANA
09:00 23.2 11.6 47 28 5 24.1 101.10 25   LegendNANA
10:00 25.9 10.6 38 25 15 24.1 101.07 27   Clear
11:00 26.9 8.5 31 25 17 24.1 101.06 28   LegendNANA
12:00 27.9 7.4 27 22 16 24.1 101.00 28   LegendNANA
13:00 28.5 9.2 29 20 9 24.1 100.95 29   Mainly Clear
14:00 29.1 9.0 28 21 12 24.1 100.87 30   LegendNANA
15:00 29.5 10.2 30 24 10 24.1 100.83 31   LegendNANA
16:00 29.6 10.4 30 23 7 24.1 100.76 31   Mainly Clear
17:00 29.4 10.6 30 25 13 24.1 100.71 31   LegendNANA
18:00 28.4 9.4 30 24 9 24.1 100.68 29   LegendNANA
19:00 26.1 9.9 36 21 8 24.1 100.67 27   Mostly Cloudy
20:00 24.8 9.7 38 21 8 24.1 100.66 26   LegendNANA
21:00 22.5 10.4 46 18 7 24.1 100.71     LegendNANA
22:00 20.7 11.2 54 21 6 24.1 100.69     Clear
23:00 19.7 11.7 59 21 9 24.1 100.65     LegendNANA

Notes on Data Quality.

Legend

  • E = Estimated
  • M = Missing
  • NA = Not Available*
  • [empty] = Indicates an unobserved value
Date modified: